FW6835 Weather Reports


time (UTC)temp
C
wind
direction
speed
KPH
gust
KPH
rain 1hr
cm
rain 24hr
cm
rain mn
cm
humidity
%
barometer
mb
20260507060553 10 159 0.0 0.0 0.03 0.84 0.84 99 1009.2
20260507060057 10 82 0.0 0.0 0.03 0.84 0.84 99 1009.2
20260507055549 9 82 0.0 0.0 0.03 0.84 0.84 99 1009.2
20260507055047 9 82 0.0 1.6 0.03 0.84 0.84 99 1009.0
20260507054546 9 82 0.0 3.2 0.03 0.84 0.84 99 1009.1
20260507054047 8 83 0.0 3.2 0.00 0.81 0.81 98 1009.0
20260507053545 8 42 0.0 0.0 0.00 0.81 0.81 99 1009.0
20260507053046 9 39 0.0 0.0 0.00 0.81 0.81 99 1009.0
20260507052546 8 39 0.0 0.0 0.00 0.81 0.81 99 1009.0
20260507052043 8 39 0.0 0.0 0.00 0.81 0.81 99 1008.9
20260507051543 8 39 0.0 0.0 0.00 0.81 0.81 99 1008.9
20260507051041 8 38 0.0 0.0 0.00 0.81 0.81 99 1008.8
20260507050539 8 38 0.0 0.0 0.00 0.81 0.81 99 1008.6
20260507050042 8 38 0.0 0.0 0.00 0.81 0.81 99 1008.7
20260507045540 8 38 0.0 0.0 0.03 0.81 0.81 99 1008.6
20260507045037 8 39 0.0 0.0 0.03 0.81 0.81 99 1008.6
20260507044537 8 39 0.0 0.0 0.03 0.81 0.81 99 1008.7
20260507044035 8 39 0.0 0.0 0.03 0.81 0.81 99 1008.7
20260507043533 8 39 0.0 0.0 0.05 0.81 0.81 99 1008.5
20260507043035 8 39 0.0 0.0 0.05 0.81 0.81 99 1008.5
20260507042531 8 39 0.0 0.0 0.08 0.81 0.81 99 1008.4
20260507042029 8 355 0.0 0.0 0.10 0.81 0.81 98 1008.4
20260507041529 8 355 0.0 3.2 0.15 0.81 0.81 98 1008.3
20260507041029 8 355 0.0 3.2 0.15 0.81 0.81 98 1008.4
20260507040529 8 339 0.0 1.6 0.15 0.81 0.81 98 1008.3
20260507040028 8 313 0.0 3.2 0.13 0.79 0.79 98 1008.3
20260507035528 8 313 0.0 3.2 0.13 0.79 0.79 98 1008.3
20260507035028 8 313 0.0 0.0 0.15 0.79 0.79 99 1008.2
20260507034534 8 313 0.0 3.2 0.15 0.79 0.79 98 1008.3
20260507034027 8 313 0.0 3.2 0.15 0.79 0.79 98 1008.3
20260507033527 8 313 0.0 1.6 0.13 0.79 0.79 98 1008.4
20260507033026 8 313 0.0 3.2 0.13 0.76 0.76 98 1008.2
20260507032525 8 313 0.0 3.2 0.10 0.71 0.71 98 1008.1
20260507032025 8 313 0.0 3.2 0.08 0.71 0.71 98 1008.0
20260507031524 8 313 0.0 3.2 0.08 0.69 0.69 98 1007.9
20260507031025 8 313 0.0 1.6 0.08 0.69 0.69 98 1008.0
20260507030526 8 313 0.0 4.8 0.10 0.69 0.69 98 1007.9
20260507030024 8 313 0.0 4.8 0.13 0.69 0.69 98 1007.9
20260507025523 8 310 0.0 3.2 0.13 0.66 0.66 98 1007.8
20260507025023 8 310 0.0 3.2 0.13 0.66 0.66 98 1007.8
20260507024523 8 309 0.0 3.2 0.13 0.66 0.66 98 1007.8
20260507024022 8 306 0.0 4.8 0.13 0.66 0.66 98 1007.7
20260507023522 8 304 1.6 4.8 0.13 0.66 0.66 98 1007.6
20260507023021 8 5 0.0 4.8 0.10 0.64 0.64 98 1007.5
20260507022520 8 43 1.6 4.8 0.10 0.64 0.64 98 1007.6
20260507022021 8 227 0.0 6.4 0.08 0.61 0.61 98 1007.6
20260507021518 8 44 1.6 6.4 0.05 0.61 0.61 98 1007.6
20260507021018 8 10 1.6 4.8 0.05 0.58 0.58 98 1007.7
20260507020518 8 80 1.6 3.2 0.05 0.58 0.58 98 1007.7
20260507020027 8 291 0.0 3.2 0.03 0.56 0.56 98 1007.9
20260507015516 8 291 0.0 6.4 0.00 0.53 0.53 98 1007.8
20260507015016 8 91 0.0 6.4 0.00 0.53 0.53 97 1007.6
20260507014515 8 72 1.6 6.4 0.00 0.53 0.53 97 1007.6
20260507014015 8 355 1.6 8.0 0.00 0.53 0.53 98 1007.6
20260507013513 8 345 3.2 16.1 0.00 0.53 0.53 97 1007.5
20260507013018 8 76 1.6 16.1 0.03 0.53 0.53 97 1007.5
20260507012511 9 272 1.6 11.3 0.05 0.53 0.53 97 1007.5
20260507012010 9 42 0.0 12.9 0.08 0.53 0.53 97 1007.5
20260507011512 9 82 1.6 11.3 0.10 0.53 0.53 97 1007.5
20260507011008 10 76 0.0 9.7 0.15 0.53 0.53 98 1007.5
20260507010507 10 64 3.2 9.7 0.15 0.53 0.53 98 1007.4
20260507010007 10 107 0.0 4.8 0.20 0.53 0.53 98 1007.3
20260507005506 10 267 0.0 0.0 0.23 0.56 0.53 98 1007.5
20260507005006 10 267 0.0 0.0 0.25 0.56 0.53 98 1007.4
20260507004506 10 267 0.0 0.0 0.28 0.56 0.53 98 1007.3
20260507004005 10 267 0.0 3.2 0.30 0.56 0.53 98 1007.2
20260507003508 10 267 0.0 3.2 0.33 0.56 0.53 98 1007.2
20260507003006 10 267 0.0 3.2 0.33 0.53 0.51 98 1007.2
20260507002504 10 266 0.0 3.2 0.33 0.51 0.48 98 1007.3
20260507002003 10 266 0.0 3.2 0.33 0.48 0.46 98 1007.2
20260507001512 10 263 0.0 0.0 0.30 0.43 0.43 98 1007.1
20260507001003 10 263 0.0 3.2 0.28 0.43 0.41 97 1007.1
20260507000504 10 261 0.0 3.2 0.28 0.41 0.38 98 1006.9
20260507000002 10 229 0.0 0.0 0.25 0.36 0.33 98 1007.1
20260506235501 10 229 0.0 0.0 0.23 0.46 0.30 98 1007.1
20260506235100 10 229 0.0 0.0 0.20 0.43 0.28 98 1007.3
20260506234603 10 229 0.0 6.4 0.20 0.43 0.25 98 1007.2
20260506234100 11 229 0.0 6.4 0.20 0.41 0.23 98 1007.3
20260506233602 11 248 0.0 4.8 0.15 0.36 0.20 97 1007.2
20260506233101 11 248 0.0 4.8 0.15 0.33 0.18 97 1007.1
20260506232557 11 247 1.6 4.8 0.13 0.30 0.15 97 1007.1
20260506232058 11 178 0.0 4.8 0.10 0.28 0.13 97 1007.1
20260506231606 11 71 0.0 3.2 0.13 0.28 0.13 97 1007.0
20260506231057 11 63 0.0 4.8 0.13 0.28 0.13 97 1006.9
20260506230557 11 63 1.6 4.8 0.10 0.25 0.10 97 1006.8
20260506230112 11 94 1.6 8.0 0.08 0.23 0.08 97 1006.8
20260506225557 11 44 1.6 9.7 0.08 0.64 0.08 97 1006.7
20260506225055 11 325 3.2 16.1 0.05 0.61 0.05 96 1006.7
20260506224556 11 100 4.8 16.1 0.05 0.61 0.05 96 1006.7
20260506224055 11 69 3.2 9.7 0.05 0.61 0.05 96 1006.7
20260506223558 11 38 1.6 12.9 0.05 0.61 0.05 96 1006.7
20260506223054 11 58 4.8 14.5 0.05 0.61 0.05 96 1006.7
20260506222552 11 91 3.2 14.5 0.03 0.58 0.03 96 1006.7
20260506222054 11 65 3.2 9.7 0.03 0.58 0.03 96 1006.8
20260506221605 11 94 1.6 9.7 0.00 0.56 0.00 96 1006.8
20260506221050 11 101 3.2 17.7 0.00 0.56 0.00 96 1006.7
20260506220549 11 95 4.8 14.5 0.00 0.56 0.00 96 1006.8
20260506220049 11 87 3.2 14.5 0.00 0.56 0.00 96 1006.8
20260506215548 11 81 3.2 12.9 0.00 0.69 0.56 96 1006.7
20260506215051 11 104 6.4 12.9 0.00 0.69 0.56 96 1006.7
20260506214553 11 88 1.6 9.7 0.00 0.69 0.56 96 1006.7
20260506214046 11 96 3.2 16.1 0.00 0.69 0.56 95 1006.7
20260506213547 11 67 4.8 14.5 0.00 0.69 0.56 95 1006.7
20260506213047 11 68 3.2 11.3 0.00 0.69 0.56 95 1006.6
20260506212546 11 155 3.2 11.3 0.00 0.69 0.56 95 1006.6
20260506212046 11 87 3.2 11.3 0.00 0.69 0.56 95 1006.5
20260506211546 11 53 3.2 9.7 0.00 0.69 0.56 95 1006.5
20260506211048 11 44 3.2 12.9 0.00 0.69 0.56 95 1006.4
20260506210547 11 96 3.2 12.9 0.00 0.69 0.56 95 1006.5
20260506210054 11 333 3.2 14.5 0.00 0.69 0.56 95 1006.4
20260506205551 11 69 3.2 14.5 0.00 0.69 0.56 95 1006.4
20260506205045 11 80 1.6 12.9 0.00 0.69 0.56 95 1006.5
20260506204547 11 91 3.2 17.7 0.00 0.69 0.56 95 1006.3
20260506204044 11 73 4.8 17.7 0.00 0.69 0.56 94 1006.3
20260506203544 12 70 4.8 12.9 0.00 0.69 0.56 94 1006.2
20260506203045 12 342 1.6 12.9 0.00 0.69 0.56 94 1006.3
20260506202544 12 178 3.2 12.9 0.00 0.69 0.56 94 1006.3
20260506202044 12 32 4.8 12.9 0.00 0.69 0.56 94 1006.2
20260506201544 12 305 3.2 12.9 0.00 0.69 0.56 93 1006.2
20260506201047 12 68 4.8 16.1 0.00 0.69 0.56 93 1006.2
20260506200552 12 82 3.2 16.1 0.00 0.69 0.56 93 1006.1
20260506200043 12 91 4.8 16.1 0.00 0.69 0.56 92 1006.1
20260506195543 12 99 1.6 11.3 0.00 0.69 0.56 92 1006.2
20260506195043 12 78 3.2 11.3 0.00 0.69 0.56 92 1006.1
20260506194544 12 41 4.8 16.1 0.00 0.69 0.56 91 1006.2
20260506194042 12 5 3.2 16.1 0.00 0.69 0.56 91 1006.2
20260506193543 12 69 4.8 16.1 0.00 0.69 0.56 90 1006.3
20260506193046 12 87 3.2 8.0 0.00 0.69 0.56 90 1006.2
20260506192542 13 42 3.2 16.1 0.00 0.69 0.56 90 1006.3
20260506192042 13 80 3.2 16.1 0.00 0.69 0.56 89 1006.2
20260506191542 13 67 3.2 9.7 0.00 0.69 0.56 89 1006.2
20260506191042 13 79 3.2 8.0 0.00 0.69 0.56 88 1006.1
20260506190541 13 61 3.2 17.7 0.00 0.69 0.56 88 1006.1
20260506190043 13 116 3.2 17.7 0.00 0.69 0.56 87 1006.1
20260506185542 13 98 3.2 8.0 0.00 0.69 0.56 87 1005.9
20260506185041 13 86 3.2 9.7 0.00 0.69 0.56 86 1005.9
20260506184546 13 74 3.2 9.7 0.00 0.69 0.56 86 1005.9
20260506184142 13 84 1.6 9.7 0.00 0.69 0.56 86 1005.6
20260506183545 13 63 3.2 11.3 0.00 0.69 0.56 86 1005.7
20260506183044 13 88 3.2 8.0 0.00 0.69 0.56 86 1005.6
20260506182541 13 63 1.6 9.7 0.00 0.69 0.56 86 1005.6
20260506182042 13 76 1.6 6.4 0.00 0.69 0.56 87 1005.7
20260506181545 13 78 3.2 8.0 0.00 0.69 0.56 87 1005.8
20260506181039 13 48 1.6 8.0 0.00 0.69 0.56 87 1005.7
20260506180543 13 62 3.2 6.4 0.00 0.69 0.56 87 1005.8
20260506180039 13 76 0.0 9.7 0.00 0.69 0.56 87 1005.8
20260506175539 13 77 0.0 9.7 0.00 0.69 0.56 87 1005.8
20260506175042 14 61 0.0 4.8 0.00 0.69 0.56 86 1005.6
20260506174539 14 59 0.0 4.8 0.00 0.69 0.56 85 1005.5
20260506174039 14 119 0.0 0.0 0.00 0.69 0.56 85 1005.7
20260506173539 14 121 0.0 0.0 0.00 0.69 0.56 84 1005.7
20260506173044 15 126 0.0 0.0 0.00 0.69 0.56 83 1005.5
20260506172538 15 126 0.0 0.0 0.00 0.69 0.56 82 1005.5
20260506172037 15 128 0.0 0.0 0.00 0.69 0.56 81 1005.5
20260506171538 15 128 0.0 0.0 0.00 0.69 0.56 80 1005.4
20260506171038 15 128 0.0 0.0 0.00 0.69 0.56 79 1005.4
20260506170538 16 132 0.0 0.0 0.00 0.69 0.56 78 1005.5
20260506170044 16 134 0.0 0.0 0.00 0.69 0.56 76 1005.4
20260506165537 16 142 0.0 0.0 0.00 0.69 0.56 77 1005.5
20260506165037 16 147 0.0 0.0 0.00 0.69 0.56 77 1005.6
20260506164551 16 148 0.0 0.0 0.00 0.69 0.56 74 1005.7
20260506164036 16 148 0.0 0.0 0.00 0.69 0.56 72 1005.6
20260506163537 17 148 0.0 0.0 0.00 0.69 0.56 72 1005.4
20260506163041 17 148 0.0 0.0 0.00 0.69 0.56 71 1005.6
20260506162539 17 162 0.0 8.0 0.00 0.69 0.56 73 1005.4
20260506162039 17 148 0.0 8.0 0.00 0.69 0.56 66 1005.4
20260506161536 17 148 1.6 8.0 0.00 0.69 0.56 65 1005.4
20260506161035 17 262 0.0 8.0 0.00 0.69 0.56 66 1005.5
20260506160535 17 294 0.0 8.0 0.00 0.69 0.56 67 1005.6
20260506160037 17 281 1.6 9.7 0.00 0.69 0.56 64 1005.8
20260506155535 17 261 1.6 9.7 0.00 0.69 0.56 64 1005.8
20260506155035 17 204 3.2 11.3 0.00 0.69 0.56 64 1005.7
20260506154536 17 205 0.0 6.4 0.00 0.69 0.56 68 1005.7
20260506154037 17 188 0.0 6.4 0.00 0.69 0.56 67 1005.7
20260506153537 17 182 3.2 12.9 0.00 0.69 0.56 64 1005.7
20260506153035 17 194 3.2 12.9 0.00 0.69 0.56 63 1005.8
20260506152534 17 177 3.2 12.9 0.00 0.69 0.56 63 1005.9
20260506152036 18 209 4.8 12.9 0.00 0.69 0.56 62 1005.8
20260506151537 18 142 4.8 12.9 0.00 0.69 0.56 60 1005.9
20260506151033 18 186 6.4 14.5 0.00 0.69 0.56 60 1005.9
20260506150533 18 183 4.8 14.5 0.00 0.69 0.56 61 1005.7
20260506150033 18 128 3.2 14.5 0.00 0.69 0.56 62 1005.7
20260506145533 18 140 4.8 14.5 0.00 0.69 0.56 62 1005.8
20260506145031 18 215 4.8 14.5 0.00 0.69 0.56 64 1005.8
20260506144532 18 184 8.0 14.5 0.00 0.69 0.56 62 1005.8
20260506144031 18 160 6.4 12.9 0.00 0.69 0.56 66 1005.9
20260506143531 17 190 1.6 11.3 0.00 0.69 0.56 67 1005.9
20260506143037 17 165 3.2 11.3 0.00 0.69 0.56 67 1006.0
20260506142630 17 165 4.8 11.3 0.00 0.69 0.56 67 1006.1
20260506142030 18 155 3.2 12.9 0.00 0.69 0.56 65 1006.0
20260506141540 18 210 3.2 16.1 0.00 0.69 0.56 69 1006.0
20260506141029 18 144 6.4 16.1 0.00 0.69 0.56 66 1006.0
20260506140532 18 192 4.8 14.5 0.00 0.69 0.56 66 1006.1
20260506140029 17 156 6.4 14.5 0.00 0.69 0.56 64 1006.1
20260506135528 18 227 3.2 11.3 0.00 0.69 0.56 71 1006.2
20260506135031 18 177 3.2 17.7 0.00 0.69 0.56 66 1006.1
20260506134528 18 145 6.4 17.7 0.00 0.69 0.56 64 1006.1
20260506134029 18 191 3.2 16.1 0.00 0.69 0.56 64 1006.2
20260506133527 18 248 6.4 16.1 0.00 0.69 0.56 65 1006.1
20260506133027 18 252 6.4 16.1 0.00 0.69 0.56 66 1006.3
20260506132530 18 164 4.8 14.5 0.00 0.69 0.56 67 1006.3
20260506132026 18 252 6.4 19.3 0.00 0.69 0.56 67 1006.3
20260506131526 18 279 9.7 20.9 0.00 0.69 0.56 65 1006.3
20260506131024 18 240 3.2 14.5 0.00 0.69 0.56 71 1006.3
20260506130528 18 292 6.4 14.5 0.00 0.69 0.56 68 1006.4
20260506130023 17 173 6.4 14.5 0.00 0.69 0.56 72 1006.4
20260506125523 17 151 4.8 14.5 0.00 0.69 0.56 69 1006.3
20260506125023 18 242 4.8 14.5 0.00 0.69 0.56 70 1006.4
20260506124522 18 175 4.8 14.5 0.00 0.69 0.56 71 1006.4
20260506124021 17 194 4.8 16.1 0.00 0.69 0.56 70 1006.4
20260506123521 17 219 4.8 16.1 0.00 0.69 0.56 73 1006.5
20260506123021 17 186 4.8 16.1 0.00 0.69 0.56 72 1006.4
20260506122520 17 178 6.4 11.3 0.00 0.69 0.56 70 1006.5
20260506122019 17 201 3.2 14.5 0.00 0.69 0.56 74 1006.6
20260506121519 17 178 8.0 16.1 0.00 0.69 0.56 72 1006.5
20260506121019 17 220 6.4 11.3 0.00 0.69 0.56 73 1006.5
20260506120519 17 203 4.8 14.5 0.00 0.69 0.56 73 1006.5
20260506120034 17 184 4.8 17.7 0.00 0.69 0.56 70 1006.5
20260506115521 17 267 4.8 17.7 0.00 0.69 0.56 73 1006.5
20260506115017 17 207 4.8 14.5 0.00 0.69 0.56 77 1006.5
20260506114519 17 213 4.8 12.9 0.00 0.69 0.56 74 1006.3
20260506114015 16 232 3.2 12.9 0.00 0.69 0.56 76 1006.4
20260506113514 16 196 4.8 17.7 0.00 0.69 0.56 74 1006.4
20260506113013 16 253 8.0 17.7 0.00 0.69 0.56 74 1006.3
20260506112512 16 185 6.4 19.3 0.00 0.69 0.56 73 1006.6
20260506112012 16 266 8.0 19.3 0.00 0.69 0.56 73 1006.3
20260506111510 16 184 6.4 12.9 0.00 0.69 0.56 75 1006.4
20260506111010 16 211 4.8 12.9 0.00 0.69 0.56 76 1006.3
20260506110610 16 249 4.8 12.9 0.00 0.69 0.56 77 1006.3
20260506110010 16 226 4.8 16.1 0.00 0.69 0.56 78 1006.5
20260506105509 15 239 8.0 19.3 0.00 0.69 0.56 78 1006.5
20260506105010 16 312 4.8 27.4 0.00 0.69 0.56 79 1006.4
20260506104513 16 255 3.2 22.5 0.00 0.69 0.56 78 1006.5
20260506104011 16 176 8.0 22.5 0.00 0.69 0.56 77 1006.4
20260506103506 16 182 1.6 11.3 0.00 0.69 0.56 82 1006.5
20260506103018 15 164 4.8 12.9 0.00 0.69 0.56 83 1006.4
20260506102507 15 207 4.8 11.3 0.00 0.69 0.56 82 1006.3
20260506102006 15 242 3.2 12.9 0.00 0.69 0.56 81 1006.3
20260506101505 15 210 4.8 12.9 0.00 0.69 0.56 81 1006.4
20260506101002 15 227 6.4 12.9 0.00 0.69 0.56 81 1006.4
20260506100502 15 155 4.8 14.5 0.00 0.69 0.56 83 1006.4
20260506100002 15 178 8.0 14.5 0.00 0.69 0.56 83 1006.3
20260506095601 15 181 6.4 17.7 0.00 0.69 0.56 85 1006.5
20260506095059 15 141 6.4 16.1 0.00 0.69 0.56 86 1006.4
20260506094603 14 247 3.2 11.3 0.00 0.69 0.56 90 1006.3
20260506094057 14 215 3.2 8.0 0.00 0.69 0.56 90 1006.4
20260506093555 13 192 4.8 9.7 0.00 0.69 0.56 90 1006.4
20260506093054 13 245 3.2 11.3 0.00 0.69 0.56 92 1006.5
20260506092553 13 193 1.6 11.3 0.00 0.69 0.56 91 1006.4
20260506092052 13 167 3.2 16.1 0.00 0.69 0.56 90 1006.3
20260506091552 13 254 4.8 16.1 0.00 0.69 0.56 91 1006.5
20260506091051 13 194 3.2 14.5 0.00 0.69 0.56 93 1006.4
20260506090549 12 268 4.8 14.5 0.00 0.69 0.56 93 1006.4
20260506090049 12 118 3.2 11.3 0.00 0.69 0.56 93 1006.3
20260506085548 12 221 1.6 9.7 0.00 0.69 0.56 93 1006.3
20260506085048 12 175 4.8 11.3 0.00 0.69 0.56 93 1006.5
20260506084615 12 211 3.2 12.9 0.00 0.69 0.56 93 1006.3
20260506084047 12 275 4.8 12.9 0.00 0.69 0.56 94 1006.3
20260506083545 12 193 6.4 12.9 0.00 0.69 0.56 94 1006.2
20260506083046 12 188 3.2 8.0 0.00 0.69 0.56 95 1006.2
20260506082544 12 193 0.0 9.7 0.00 0.69 0.56 96 1006.1
20260506082044 12 242 4.8 9.7 0.00 0.69 0.56 96 1006.0
20260506081552 12 176 1.6 11.3 0.00 0.69 0.56 96 1006.1
20260506081043 11 176 3.2 12.9 0.00 0.69 0.56 96 1006.1
20260506080543 11 117 4.8 12.9 0.00 0.69 0.56 96 1006.2
20260506073040 11 146 6.4 14.5 0.00 0.69 0.56 97 1006.0
20260506072539 11 183 4.8 14.5 0.00 0.69 0.56 97 1005.9
20260506072039 11 182 1.6 11.3 0.00 0.69 0.56 98 1005.9
20260506071539 11 266 4.8 11.3 0.00 0.69 0.56 98 1005.8
20260506071038 11 246 1.6 9.7 0.00 0.69 0.56 98 1005.9
20260506070538 11 207 3.2 8.0 0.00 0.69 0.56 99 1005.8
20260506062034 10 206 3.2 11.3 0.00 0.69 0.56 99 1006.0
20260506061534 10 196 1.6 8.0 0.00 0.69 0.56 99 1006.2